AFL3110 NZQN-NZWN

Flight info

Callsign AFL3110
Flight time 1h 1m
Altitude 31000
Route TIMJO Q787 BELEE Y111 WARDS
Aircraft B738/M-SDE2E3FGHIRWXY/LB1

Departure

Time 2026-05-05 20:58
Airport Queenstown Airport (NZQN)

Arrival

Time 2026-05-05 21:59
Airport Wellington International Airport (NZWN)
Time Latitude Longitude Altitude Speed Heading
2026-05-05 20:30 -45.02197 168.74116 1170 ft 0 kts 252°
2026-05-05 20:49 -45.02190 168.74145 1173 ft 4 kts 253°
2026-05-05 20:49 -45.02185 168.74172 1169 ft 2 kts 274°
2026-05-05 20:49 -45.02189 168.74187 1171 ft 2 kts 320°
2026-05-05 20:49 -45.02198 168.74195 1171 ft 2 kts 338°
2026-05-05 20:50 -45.02209 168.74201 1171 ft 2 kts 342°
2026-05-05 20:50 -45.02208 168.74200 1169 ft 0 kts 341°
2026-05-05 20:53 -45.02207 168.74199 1168 ft 1 kts 341°
2026-05-05 20:53 -45.02202 168.74197 1168 ft 1 kts 341°
2026-05-05 20:53 -45.02186 168.74189 1170 ft 3 kts 341°
2026-05-05 20:53 -45.02162 168.74178 1169 ft 4 kts 342°
2026-05-05 20:54 -45.02133 168.74162 1169 ft 5 kts 329°
2026-05-05 20:54 -45.02107 168.74116 1170 ft 7 kts 299°
2026-05-05 20:54 -45.02081 168.74047 1170 ft 9 kts 298°
2026-05-05 20:54 -45.02035 168.74002 1171 ft 7 kts
2026-05-05 20:55 -45.01989 168.74022 1174 ft 7 kts 22°
2026-05-05 20:55 -45.01943 168.74013 1174 ft 8 kts 303°
2026-05-05 20:55 -45.01944 168.73929 1174 ft 10 kts 258°
2026-05-05 20:55 -45.01960 168.73823 1174 ft 13 kts 257°
2026-05-05 20:56 -45.01983 168.73681 1170 ft 10 kts 257°
2026-05-05 20:56 -45.01985 168.73604 1167 ft 1 kts 207°
2026-05-05 20:56 -45.01989 168.73619 1168 ft 2 kts 94°
2026-05-05 20:56 -45.01985 168.73658 1167 ft 5 kts 77°
2026-05-05 20:57 -45.01985 168.73660 1167 ft 0 kts 77°
2026-05-05 20:57 -45.01935 168.73954 1175 ft 72 kts 76°
2026-05-05 20:58 -45.01764 168.75020 1177 ft 148 kts 75°
2026-05-05 20:58 -45.01502 168.76664 1619 ft 182 kts 75°
2026-05-05 20:58 -45.01217 168.78431 2697 ft 188 kts 76°
2026-05-05 20:58 -45.00975 168.80271 3617 ft 194 kts 70°
2026-05-05 20:59 -45.00371 168.82043 4031 ft 213 kts 59°
2026-05-05 20:59 -44.99584 168.83859 4652 ft 218 kts 47°
2026-05-05 20:59 -44.98529 168.85388 5420 ft 216 kts 34°
2026-05-05 20:59 -44.97138 168.86250 5813 ft 234 kts
2026-05-05 21:00 -44.95442 168.85867 5979 ft 263 kts 332°
2026-05-05 21:00 -44.94143 168.84060 6816 ft 269 kts 299°
2026-05-05 21:00 -44.93694 168.81445 7535 ft 285 kts 274°
2026-05-05 21:00 -44.94129 168.78661 8311 ft 299 kts 251°
2026-05-05 21:01 -44.95072 168.76113 9633 ft 289 kts 245°
2026-05-05 21:01 -44.96377 168.73878 10496 ft 297 kts 231°
2026-05-05 21:01 -44.97967 168.72167 10827 ft 285 kts 217°
2026-05-05 21:01 -44.99862 168.71050 10201 ft 309 kts 200°
2026-05-05 21:02 -45.02025 168.70972 10078 ft 317 kts 170°
2026-05-05 21:02 -45.03999 168.72367 9986 ft 326 kts 142°
2026-05-05 21:02 -45.05422 168.74894 9713 ft 343 kts 111°
2026-05-05 21:02 -45.05774 168.78213 10059 ft 345 kts 73°
2026-05-05 21:03 -45.04926 168.81205 11220 ft 317 kts 50°
2026-05-05 21:03 -45.03578 168.83403 12077 ft 278 kts 28°
2026-05-05 21:03 -45.01868 168.84451 11645 ft 271 kts
2026-05-05 21:03 -44.99942 168.84116 10137 ft 295 kts 332°
2026-05-05 21:04 -44.98049 168.82799 9457 ft 302 kts 337°
2026-05-05 21:04 -44.96087 168.82307 9949 ft 281 kts 357°
2026-05-05 21:04 -44.94205 168.82827 10028 ft 273 kts 10°
2026-05-05 21:04 -44.92423 168.83876 9615 ft 285 kts 19°
2026-05-05 21:05 -44.90640 168.85268 9219 ft 291 kts 25°
2026-05-05 21:05 -44.89098 168.86824 9978 ft 258 kts 24°
2026-05-05 21:05 -44.87509 168.88019 9912 ft 266 kts 13°
2026-05-05 21:05 -44.85694 168.88901 10223 ft 283 kts 11°
2026-05-05 21:06 -44.83746 168.89702 10624 ft 298 kts
2026-05-05 21:06 -44.81732 168.90364 11570 ft 296 kts 11°
2026-05-05 21:06 -44.79784 168.91564 12120 ft 317 kts 21°
2026-05-05 21:06 -44.77765 168.93101 12293 ft 341 kts 23°
2026-05-05 21:07 -44.75642 168.94668 12648 ft 356 kts 21°
2026-05-05 21:07 -44.73396 168.96194 13366 ft 360 kts 21°
2026-05-05 21:07 -44.71089 168.97670 14016 ft 367 kts 20°
2026-05-05 21:07 -44.68747 168.99141 14697 ft 369 kts 21°
2026-05-05 21:08 -44.66515 169.00966 15417 ft 375 kts 36°
2026-05-05 21:08 -44.64684 169.03595 16168 ft 380 kts 50°
2026-05-05 21:08 -44.63257 169.06756 16812 ft 386 kts 58°
2026-05-05 21:08 -44.61944 169.10069 17423 ft 391 kts 59°
2026-05-05 21:09 -44.60624 169.13413 18054 ft 394 kts 59°
2026-05-05 21:09 -44.59285 169.16792 18608 ft 398 kts 59°
2026-05-05 21:09 -44.57944 169.20155 19114 ft 401 kts 59°
2026-05-05 21:09 -44.56576 169.23583 19715 ft 402 kts 58°
2026-05-05 21:10 -44.55191 169.27003 20215 ft 405 kts 58°
2026-05-05 21:10 -44.53792 169.30455 20700 ft 409 kts 58°
2026-05-05 21:10 -44.52379 169.33936 21204 ft 412 kts 58°
2026-05-05 21:10 -44.50955 169.37438 21700 ft 415 kts 57°
2026-05-05 21:11 -44.49521 169.40963 22171 ft 418 kts 57°
2026-05-05 21:11 -44.48073 169.44524 22613 ft 421 kts 57°
2026-05-05 21:11 -44.46614 169.48085 23156 ft 422 kts 57°
2026-05-05 21:11 -44.45153 169.51666 23589 ft 425 kts 56°
2026-05-05 21:12 -44.43677 169.55266 23976 ft 429 kts 57°
2026-05-05 21:12 -44.42192 169.58902 24396 ft 431 kts 56°
2026-05-05 21:12 -44.41206 169.61311 24656 ft 432 kts 57°
2026-05-05 21:12 -44.39705 169.64970 25031 ft 435 kts 56°
2026-05-05 21:13 -44.38193 169.68650 25393 ft 438 kts 57°
2026-05-05 21:13 -44.36668 169.72350 25756 ft 440 kts 56°
2026-05-05 21:13 -44.34635 169.77282 26219 ft 444 kts 56°
2026-05-05 21:13 -44.33087 169.81035 26546 ft 447 kts 56°
2026-05-05 21:14 -44.32050 169.83545 26653 ft 452 kts 56°
2026-05-05 21:14 -44.30470 169.87365 26907 ft 456 kts 56°
2026-05-05 21:14 -44.28879 169.91208 27230 ft 459 kts 56°
2026-05-05 21:14 -44.27279 169.95070 27566 ft 461 kts 56°
2026-05-05 21:15 -44.25669 169.98948 27884 ft 463 kts 56°
2026-05-05 21:15 -44.24050 170.02844 28196 ft 465 kts 56°
2026-05-05 21:15 -44.22419 170.06762 28498 ft 467 kts 56°
2026-05-05 21:15 -44.20782 170.10691 28893 ft 467 kts 55°
2026-05-05 21:16 -44.19149 170.14605 29353 ft 466 kts 55°
2026-05-05 21:16 -44.17524 170.18496 29789 ft 465 kts 55°
2026-05-05 21:16 -44.15888 170.22401 30056 ft 468 kts 55°
2026-05-05 21:16 -44.14153 170.26238 30353 ft 466 kts 49°
2026-05-05 21:17 -44.12072 170.29642 30706 ft 460 kts 39°
2026-05-05 21:17 -44.09673 170.32529 31035 ft 454 kts 32°
2026-05-05 21:17 -44.07178 170.35227 31257 ft 456 kts 32°
2026-05-05 21:17 -44.04684 170.37895 31244 ft 460 kts 32°
2026-05-05 21:18 -43.99634 170.43334 31236 ft 456 kts 32°
2026-05-05 21:18 -43.94663 170.48750 31250 ft 454 kts 32°
2026-05-05 21:19 -43.89691 170.54176 31226 ft 456 kts 33°
2026-05-05 21:19 -43.84694 170.59626 31244 ft 458 kts 33°
2026-05-05 21:20 -43.79659 170.65095 31239 ft 461 kts 33°
2026-05-05 21:20 -43.74587 170.70594 31246 ft 465 kts 33°
2026-05-05 21:21 -43.69492 170.76106 31235 ft 466 kts 33°
2026-05-05 21:21 -43.64387 170.81624 31256 ft 467 kts 33°
2026-05-05 21:22 -43.59317 170.87088 31257 ft 458 kts 33°
2026-05-05 21:22 -43.54322 170.92461 31246 ft 459 kts 34°
2026-05-05 21:23 -43.49256 170.97891 31263 ft 462 kts 33°
2026-05-05 21:23 -43.44153 171.03335 31280 ft 465 kts 34°
2026-05-05 21:24 -43.39014 171.08816 31296 ft 467 kts 33°
2026-05-05 21:24 -43.33862 171.14308 31292 ft 469 kts 33°
2026-05-05 21:25 -43.28726 171.19763 31284 ft 470 kts 34°
2026-05-05 21:25 -43.23559 171.25239 31299 ft 468 kts 34°
2026-05-05 21:26 -43.18397 171.30697 31294 ft 467 kts 34°
2026-05-05 21:26 -43.13268 171.36126 31291 ft 466 kts 34°
2026-05-05 21:27 -43.08131 171.41522 31317 ft 465 kts 34°
2026-05-05 21:27 -43.02995 171.46916 31330 ft 466 kts 34°
2026-05-05 21:28 -42.98335 171.53113 31323 ft 472 kts 51°
2026-05-05 21:28 -42.94938 171.60801 31346 ft 474 kts 59°
2026-05-05 21:29 -42.91753 171.68686 31318 ft 474 kts 60°
2026-05-05 21:29 -42.88535 171.76557 31337 ft 476 kts 60°
2026-05-05 21:30 -42.85294 171.84357 31309 ft 475 kts 59°
2026-05-05 21:30 -42.82019 171.92182 31337 ft 475 kts 59°
2026-05-05 21:31 -42.78739 171.99992 31311 ft 475 kts 59°
2026-05-05 21:31 -42.75458 172.07788 31310 ft 474 kts 59°
2026-05-05 21:32 -42.72175 172.15571 31282 ft 475 kts 60°
2026-05-05 21:32 -42.68867 172.23392 31305 ft 478 kts 60°
2026-05-05 21:33 -42.65532 172.31258 31284 ft 481 kts 59°
2026-05-05 21:33 -42.62190 172.39121 31272 ft 484 kts 60°
2026-05-05 21:34 -42.58864 172.46920 31255 ft 468 kts 59°
2026-05-05 21:34 -42.55597 172.54563 31262 ft 470 kts 59°
2026-05-05 21:35 -42.52303 172.62248 31290 ft 473 kts 59°
2026-05-05 21:35 -42.49023 172.69884 30830 ft 462 kts 59°
2026-05-05 21:36 -42.47433 172.73574 30430 ft 457 kts 59°
2026-05-05 21:36 -42.45834 172.77284 29948 ft 453 kts 59°
2026-05-05 21:36 -42.44249 172.80957 29473 ft 449 kts 59°
2026-05-05 21:36 -42.42680 172.84590 29016 ft 445 kts 59°
2026-05-05 21:37 -42.41120 172.88196 28526 ft 442 kts 59°
2026-05-05 21:37 -42.39571 172.91771 28077 ft 438 kts 59°
2026-05-05 21:37 -42.38032 172.95318 27611 ft 435 kts 59°
2026-05-05 21:37 -42.36504 172.98836 27169 ft 433 kts 59°
2026-05-05 21:38 -42.34987 173.02326 26708 ft 430 kts 59°
2026-05-05 21:38 -42.33474 173.05802 26274 ft 427 kts 59°
2026-05-05 21:38 -42.31969 173.09259 25839 ft 425 kts 59°
2026-05-05 21:38 -42.30471 173.12694 25385 ft 424 kts 59°
2026-05-05 21:39 -42.28977 173.16115 24933 ft 422 kts 59°
2026-05-05 21:39 -42.27480 173.19535 24473 ft 421 kts 59°
2026-05-05 21:39 -42.25992 173.22932 24029 ft 420 kts 59°
2026-05-05 21:39 -42.24507 173.26321 23540 ft 418 kts 59°
2026-05-05 21:40 -42.23030 173.29687 23052 ft 416 kts 59°
2026-05-05 21:40 -42.21582 173.32987 22589 ft 412 kts 58°
2026-05-05 21:40 -42.20127 173.36297 22144 ft 408 kts 58°
2026-05-05 21:40 -42.18687 173.39569 21724 ft 404 kts 58°
2026-05-05 21:41 -42.17256 173.42817 21294 ft 401 kts 58°
2026-05-05 21:41 -42.15837 173.46030 20854 ft 397 kts 57°
2026-05-05 21:41 -42.14428 173.49217 20429 ft 393 kts 57°
2026-05-05 21:41 -42.13037 173.52366 20018 ft 389 kts 58°
2026-05-05 21:42 -42.11654 173.55484 19606 ft 386 kts 57°
2026-05-05 21:42 -42.10286 173.58573 19200 ft 382 kts 56°
2026-05-05 21:42 -42.08929 173.61632 18787 ft 379 kts 56°
2026-05-05 21:42 -42.07582 173.64671 18354 ft 376 kts 56°
2026-05-05 21:43 -42.06248 173.67681 17889 ft 373 kts 56°
2026-05-05 21:43 -42.04923 173.70660 17455 ft 370 kts 57°
2026-05-05 21:43 -42.03623 173.73579 17046 ft 366 kts 57°
2026-05-05 21:43 -42.02318 173.76503 16624 ft 362 kts 55°
2026-05-05 21:44 -42.01027 173.79387 16236 ft 359 kts 55°
2026-05-05 21:44 -41.99749 173.82250 15804 ft 356 kts 55°
2026-05-05 21:44 -41.98479 173.85095 15412 ft 354 kts 54°
2026-05-05 21:44 -41.97213 173.87927 15000 ft 352 kts 55°
2026-05-05 21:45 -41.95955 173.90737 14614 ft 351 kts 54°
2026-05-05 21:45 -41.94694 173.93538 14210 ft 350 kts 56°
2026-05-05 21:45 -41.93419 173.96364 13500 ft 356 kts 56°
2026-05-05 21:45 -41.92143 173.99197 13026 ft 354 kts 56°
2026-05-05 21:46 -41.90876 174.02020 12623 ft 351 kts 56°
2026-05-05 21:46 -41.89613 174.04821 12214 ft 349 kts 56°
2026-05-05 21:46 -41.88356 174.07603 11811 ft 347 kts 56°
2026-05-05 21:46 -41.87110 174.10363 11417 ft 344 kts 56°
2026-05-05 21:47 -41.85872 174.13098 11055 ft 342 kts 56°
2026-05-05 21:47 -41.84637 174.15806 10657 ft 339 kts 54°
2026-05-05 21:47 -41.83045 174.18053 10400 ft 326 kts 31°
2026-05-05 21:47 -41.81219 174.19757 10255 ft 316 kts 31°
2026-05-05 21:48 -41.79445 174.21432 10132 ft 308 kts 32°
2026-05-05 21:48 -41.77723 174.23072 9994 ft 299 kts 32°
2026-05-05 21:48 -41.76055 174.24681 9883 ft 290 kts 31°
2026-05-05 21:48 -41.74449 174.26228 9878 ft 279 kts 32°
2026-05-05 21:49 -41.72870 174.27804 9317 ft 289 kts 37°
2026-05-05 21:49 -41.71434 174.29723 8936 ft 294 kts 41°
2026-05-05 21:49 -41.70019 174.31698 8629 ft 293 kts 40°
2026-05-05 21:49 -41.68608 174.33614 8318 ft 292 kts 39°
2026-05-05 21:50 -41.67170 174.35528 8007 ft 292 kts 37°
2026-05-05 21:50 -41.65738 174.37454 7709 ft 291 kts 41°
2026-05-05 21:50 -41.64304 174.39369 7389 ft 292 kts 38°
2026-05-05 21:50 -41.62863 174.41275 7101 ft 291 kts 39°
2026-05-05 21:51 -41.61425 174.43191 6798 ft 292 kts 39°
2026-05-05 21:51 -41.59987 174.45107 6485 ft 292 kts 39°
2026-05-05 21:51 -41.58548 174.47024 6167 ft 292 kts 39°
2026-05-05 21:51 -41.57111 174.48935 5864 ft 291 kts 38°
2026-05-05 21:52 -41.54259 174.52722 5276 ft 290 kts 37°
2026-05-05 21:52 -41.52835 174.54611 5070 ft 285 kts 37°
2026-05-05 21:52 -41.51444 174.56457 4926 ft 279 kts 37°
2026-05-05 21:53 -41.50095 174.58275 4795 ft 274 kts 41°
2026-05-05 21:53 -41.49215 174.60562 4599 ft 287 kts 74°
2026-05-05 21:53 -41.49153 174.63213 4513 ft 282 kts 89°
2026-05-05 21:53 -41.49277 174.65764 4410 ft 269 kts 89°
2026-05-05 21:54 -41.49393 174.68199 4312 ft 257 kts 87°
2026-05-05 21:54 -41.49499 174.70532 4216 ft 247 kts 86°
2026-05-05 21:54 -41.49593 174.72768 4100 ft 237 kts 86°
2026-05-05 21:54 -41.49678 174.75046 3499 ft 250 kts 84°
2026-05-05 21:55 -41.49416 174.77209 3163 ft 227 kts 51°
2026-05-05 21:55 -41.48487 174.78644 3131 ft 188 kts 24°
2026-05-05 21:55 -41.47426 174.79429 3048 ft 163 kts
2026-05-05 21:55 -41.46412 174.79750 2925 ft 136 kts 354°
2026-05-05 21:56 -41.45515 174.79831 2625 ft 127 kts 353°
2026-05-05 21:56 -41.44653 174.79892 2301 ft 121 kts 352°
2026-05-05 21:56 -41.43817 174.79945 2072 ft 134 kts 354°
2026-05-05 21:56 -41.42837 174.80003 1907 ft 142 kts 355°
2026-05-05 21:57 -41.41883 174.80073 1712 ft 129 kts 355°
2026-05-05 21:57 -41.41014 174.80133 1532 ft 122 kts 353°
2026-05-05 21:57 -41.40163 174.80186 1387 ft 120 kts 354°
2026-05-05 21:57 -41.39306 174.80243 1215 ft 126 kts 359°
2026-05-05 21:58 -41.38366 174.80305 1034 ft 140 kts 360°
2026-05-05 21:58 -41.37416 174.80371 836 ft 136 kts
2026-05-05 21:58 -41.36478 174.80435 651 ft 134 kts
2026-05-05 21:58 -41.35545 174.80498 459 ft 137 kts
2026-05-05 21:59 -41.34602 174.80547 241 ft 133 kts
2026-05-05 21:59 -41.33678 174.80618 63 ft 133 kts
2026-05-05 21:59 -41.32800 174.80676 18 ft 106 kts
2026-05-05 21:59 -41.32282 174.80717 27 ft 43 kts
2026-05-05 22:00 -41.32171 174.80724 27 ft 4 kts
2026-05-05 22:00 -41.32145 174.80727 27 ft 5 kts
2026-05-05 22:00 -41.32097 174.80731 30 ft 8 kts
2026-05-05 22:00 -41.32043 174.80735 28 ft 8 kts
2026-05-05 22:01 -41.31989 174.80740 26 ft 8 kts
2026-05-05 22:01 -41.31938 174.80743 28 ft 7 kts
2026-05-05 22:01 -41.31905 174.80748 29 ft 7 kts 18°
2026-05-05 22:01 -41.31893 174.80807 29 ft 7 kts 91°
2026-05-05 22:02 -41.31916 174.80858 30 ft 7 kts 157°
2026-05-05 22:02 -41.31964 174.80865 30 ft 7 kts 179°
2026-05-05 22:02 -41.32011 174.80864 31 ft 7 kts 182°
2026-05-05 22:02 -41.32060 174.80860 28 ft 8 kts 183°
2026-05-05 22:03 -41.32120 174.80856 28 ft 10 kts 182°
2026-05-05 22:03 -41.32194 174.80852 30 ft 11 kts 182°
2026-05-05 22:03 -41.32273 174.80847 27 ft 11 kts 182°
2026-05-05 22:03 -41.32351 174.80841 24 ft 11 kts 184°
2026-05-05 22:04 -41.32434 174.80834 21 ft 13 kts 183°
2026-05-05 22:04 -41.32526 174.80828 18 ft 14 kts 182°
2026-05-05 22:04 -41.32620 174.80822 17 ft 13 kts 182°
2026-05-05 22:04 -41.32675 174.80819 17 ft 6 kts 182°
2026-05-05 22:05 -41.32713 174.80839 17 ft 6 kts 122°
2026-05-05 22:05 -41.32718 174.80895 17 ft 7 kts 71°
2026-05-05 22:05 -41.32706 174.80954 16 ft 7 kts 82°
2026-05-05 22:05 -41.32704 174.81014 16 ft 5 kts 107°
2026-05-05 22:06 -41.32720 174.81021 18 ft 3 kts 174°
2026-05-05 22:06 -41.32746 174.81022 16 ft 5 kts 181°
2026-05-05 22:06 -41.32751 174.81022 16 ft 0 kts 182°